Location: Axtheid
(49.6213°N, 11.8205°E)
Time: 23:20:24
(UTC+00:00)

Envisat - Pass Details

Date: 21 January 2022
Orbit: 764 x 765 km, 98.2° (Epoch: 22 May)

Event Time Altitude Azimuth Distance (km) Brightness Sun altitude
Rises 04:01:53 0° 16° (NNE) 3,243 6.5 -28.2°
Reaches altitude 10° 04:04:14 10° 19° (NNE) 2,312 5.7 -27.8°
Maximum altitude 04:09:18 66° 102° (ESE) 836 3.3 -27.0°
Drops below altitude 10° 04:14:20 10° 185° (S) 2,296 5.4 -26.2°
Sets 04:16:38 0° 188° (S) 3,218 6.2 -25.8°
